SUD013 VQPR-ZULS

Flight info

Callsign SUD013
Flight time 1h 13m
Altitude 36000
Route SUBSU DCT BGD DCT TUMLI/N0455F350 DCT NONIM/K0837S1130 DCT RKZ DCT LXA
Aircraft A320/M-SDFGHILORVWY/S

Departure

Time 2026-04-22 22:16
Airport Paro International Airport (VQPR)

Arrival

Time 2026-04-22 23:29
Airport Lhasa Gonggar International Airport (ZULS)
Time Latitude Longitude Altitude Speed Heading
2026-04-22 22:04 27.40766 89.42023 7268 ft 0 kts 252°
2026-04-22 22:07 27.40767 89.42029 7268 ft 4 kts 228°
2026-04-22 22:07 27.40780 89.42047 7273 ft 4 kts 220°
2026-04-22 22:07 27.40802 89.42063 7274 ft 2 kts 207°
2026-04-22 22:08 27.40807 89.42066 7274 ft 1 kts 207°
2026-04-22 22:09 27.40806 89.42065 7274 ft 2 kts 207°
2026-04-22 22:10 27.40782 89.42073 7274 ft 6 kts 158°
2026-04-22 22:10 27.40727 89.42108 7273 ft 12 kts 151°
2026-04-22 22:10 27.40639 89.42160 7273 ft 17 kts 151°
2026-04-22 22:10 27.40529 89.42236 7271 ft 20 kts 143°
2026-04-22 22:11 27.40393 89.42323 7271 ft 24 kts 151°
2026-04-22 22:11 27.40241 89.42418 7270 ft 19 kts 151°
2026-04-22 22:11 27.40115 89.42501 7269 ft 23 kts 150°
2026-04-22 22:11 27.39967 89.42596 7266 ft 26 kts 147°
2026-04-22 22:12 27.39849 89.42671 7268 ft 18 kts 152°
2026-04-22 22:12 27.39741 89.42738 7267 ft 20 kts 151°
2026-04-22 22:12 27.39612 89.42821 7267 ft 19 kts 152°
2026-04-22 22:12 27.39503 89.42894 7265 ft 19 kts 152°
2026-04-22 22:13 27.39434 89.42993 7259 ft 19 kts 75°
2026-04-22 22:13 27.39474 89.43019 7258 ft 2 kts 325°
2026-04-22 22:13 27.39476 89.43017 7258 ft 0 kts 325°
2026-04-22 22:15 27.39486 89.43010 7256 ft 9 kts 325°
2026-04-22 22:15 27.39769 89.42821 7264 ft 87 kts 331°
2026-04-22 22:15 27.40504 89.42357 7277 ft 152 kts 330°
2026-04-22 22:15 27.41560 89.41722 7590 ft 177 kts 334°
2026-04-22 22:16 27.42641 89.41097 8435 ft 172 kts 329°
2026-04-22 22:16 27.43642 89.40260 9000 ft 184 kts 315°
2026-04-22 22:16 27.44502 89.39142 9296 ft 194 kts 303°
2026-04-22 22:16 27.45236 89.37838 9710 ft 201 kts 301°
2026-04-22 22:17 27.45976 89.36443 9997 ft 217 kts 301°
2026-04-22 22:17 27.46787 89.34902 10190 ft 240 kts 301°
2026-04-22 22:17 27.47887 89.33382 10302 ft 263 kts 317°
2026-04-22 22:17 27.49451 89.32176 10470 ft 285 kts 339°
2026-04-22 22:18 27.51439 89.31621 10709 ft 301 kts 350°
2026-04-22 22:18 27.53513 89.31249 11328 ft 302 kts 352°
2026-04-22 22:18 27.55594 89.30998 11900 ft 309 kts 354°
2026-04-22 22:18 27.57764 89.30764 12542 ft 309 kts 354°
2026-04-22 22:19 27.59910 89.30541 13190 ft 311 kts 354°
2026-04-22 22:19 27.62049 89.30313 13923 ft 314 kts 354°
2026-04-22 22:19 27.64234 89.30058 14478 ft 316 kts 354°
2026-04-22 22:19 27.66466 89.29801 14842 ft 321 kts 353°
2026-04-22 22:20 27.67793 89.29796 15476 ft 166 kts 25°
2026-04-22 22:20 27.69103 89.30818 13774 ft 292 kts 38°
2026-04-22 22:20 27.70651 89.32417 14050 ft 304 kts 46°
2026-04-22 22:20 27.71248 89.33618 14440 ft 167 kts 89°
2026-04-22 22:21 27.40766 89.42023 13550 ft 0 kts 252°
2026-04-22 22:33 27.40772 89.42037 7269 ft 1 kts 230°
2026-04-22 22:33 27.40789 89.42055 7273 ft 4 kts 209°
2026-04-22 22:33 27.40801 89.42062 7276 ft 1 kts 207°
2026-04-22 22:35 27.40796 89.42065 7275 ft 1 kts 160°
2026-04-22 22:35 27.40776 89.42076 7276 ft 5 kts 151°
2026-04-22 22:35 27.40732 89.42104 7273 ft 9 kts 150°
2026-04-22 22:36 27.40663 89.42147 7273 ft 14 kts 150°
2026-04-22 22:36 27.40560 89.42212 7272 ft 19 kts 144°
2026-04-22 22:36 27.40429 89.42300 7272 ft 24 kts 150°
2026-04-22 22:36 27.40271 89.42401 7270 ft 28 kts 150°
2026-04-22 22:37 27.40110 89.42503 7269 ft 20 kts 149°
2026-04-22 22:37 27.39976 89.42588 7268 ft 24 kts 150°
2026-04-22 22:37 27.39818 89.42688 7268 ft 28 kts 150°
2026-04-22 22:37 27.39703 89.42763 7265 ft 16 kts 150°
2026-04-22 22:38 27.39608 89.42826 7270 ft 16 kts 150°
2026-04-22 22:38 27.39544 89.42866 7269 ft 16 kts 152°
2026-04-22 22:38 27.39432 89.42946 7268 ft 16 kts 127°
2026-04-22 22:38 27.39473 89.43019 7260 ft 5 kts 344°
2026-04-22 22:39 27.39492 89.43003 7261 ft 1 kts 327°
2026-04-22 22:39 27.39493 89.43002 7261 ft 0 kts 328°
2026-04-22 22:41 27.39494 89.43002 7261 ft 1 kts 328°
2026-04-22 22:41 27.39599 89.42929 7264 ft 51 kts 328°
2026-04-22 22:42 27.40146 89.42587 7268 ft 124 kts 330°
2026-04-22 22:42 27.41060 89.41997 7356 ft 171 kts 332°
2026-04-22 22:42 27.42130 89.41436 8066 ft 166 kts 332°
2026-04-22 22:42 27.43073 89.40657 8668 ft 173 kts 314°
2026-04-22 22:43 27.43999 89.39688 8815 ft 197 kts 316°
2026-04-22 22:43 27.44976 89.38472 9067 ft 222 kts 307°
2026-04-22 22:43 27.45869 89.37005 9905 ft 232 kts 299°
2026-04-22 22:43 27.46544 89.35304 10624 ft 243 kts 289°
2026-04-22 22:44 27.46989 89.33392 11165 ft 263 kts 283°
2026-04-22 22:44 27.47488 89.31313 11614 ft 287 kts 286°
2026-04-22 22:44 27.47966 89.29026 12105 ft 306 kts 289°
2026-04-22 22:44 27.48838 89.26896 13575 ft 291 kts 298°
2026-04-22 22:45 27.49566 89.24826 14759 ft 285 kts 289°
2026-04-22 22:45 27.50031 89.22642 15462 ft 289 kts 281°
2026-04-22 22:45 27.50218 89.20355 16025 ft 303 kts 274°
2026-04-22 22:45 27.50207 89.17876 16290 ft 328 kts 267°
2026-04-22 22:46 27.49950 89.15254 16431 ft 345 kts 265°
2026-04-22 22:46 27.49630 89.12498 16566 ft 363 kts 265°
2026-04-22 22:46 27.49298 89.09630 16687 ft 378 kts 265°
2026-04-22 22:46 27.48977 89.06635 16839 ft 390 kts 269°
2026-04-22 22:47 27.49138 89.03584 17227 ft 391 kts 284°
2026-04-22 22:47 27.49836 89.00627 17700 ft 393 kts 289°
2026-04-22 22:47 27.50719 88.97704 18224 ft 393 kts 300°
2026-04-22 22:47 27.52300 88.95219 18696 ft 390 kts 318°
2026-04-22 22:48 27.53702 88.93970 18956 ft 388 kts 331°
2026-04-22 22:48 27.56182 88.92843 19381 ft 387 kts 349°
2026-04-22 22:48 27.58876 88.92688 19795 ft 389 kts
2026-04-22 22:48 27.61551 88.93172 20167 ft 395 kts
2026-04-22 22:49 27.64229 88.93695 20596 ft 396 kts
2026-04-22 22:49 27.66979 88.94237 21134 ft 397 kts
2026-04-22 22:49 27.69711 88.94772 21590 ft 400 kts
2026-04-22 22:49 27.72463 88.95304 22083 ft 401 kts
2026-04-22 22:50 27.75225 88.95832 22536 ft 404 kts
2026-04-22 22:50 27.78006 88.96364 22988 ft 406 kts
2026-04-22 22:50 27.80790 88.96899 23421 ft 407 kts
2026-04-22 22:50 27.83593 88.97439 23879 ft 409 kts
2026-04-22 22:51 27.86413 88.97978 24235 ft 411 kts
2026-04-22 22:51 27.89239 88.98519 24540 ft 412 kts
2026-04-22 22:51 27.92067 88.99066 24886 ft 414 kts
2026-04-22 22:51 27.94915 88.99618 25211 ft 415 kts
2026-04-22 22:52 27.97769 89.00171 25570 ft 417 kts
2026-04-22 22:52 28.00636 89.00727 25894 ft 419 kts
2026-04-22 22:52 28.03511 89.01283 26205 ft 420 kts
2026-04-22 22:52 28.06397 89.01843 26524 ft 422 kts
2026-04-22 22:53 28.09296 89.02405 26870 ft 423 kts
2026-04-22 22:53 28.12199 89.02968 27212 ft 423 kts
2026-04-22 22:53 28.15107 89.03531 27523 ft 425 kts
2026-04-22 22:53 28.18029 89.04095 27820 ft 426 kts
2026-04-22 22:54 28.20955 89.04662 28107 ft 428 kts
2026-04-22 22:54 28.23900 89.05235 28389 ft 429 kts
2026-04-22 22:54 28.26807 89.05803 28626 ft 431 kts
2026-04-22 22:54 28.29807 89.06390 28879 ft 432 kts
2026-04-22 22:55 28.32771 89.06967 29121 ft 433 kts
2026-04-22 22:55 28.35706 89.07540 29350 ft 435 kts
2026-04-22 22:55 28.41676 89.08705 29875 ft 435 kts
2026-04-22 22:56 28.44656 89.09285 30214 ft 433 kts
2026-04-22 22:56 28.47622 89.09862 30493 ft 432 kts
2026-04-22 22:56 28.50583 89.10437 30732 ft 433 kts
2026-04-22 22:56 28.53553 89.11015 30944 ft 434 kts
2026-04-22 22:57 28.56528 89.11597 31133 ft 435 kts
2026-04-22 22:57 28.59523 89.12183 31354 ft 436 kts
2026-04-22 22:57 28.62515 89.12770 31579 ft 436 kts
2026-04-22 22:57 28.65508 89.13358 31785 ft 437 kts
2026-04-22 22:58 28.68506 89.13946 32018 ft 437 kts
2026-04-22 22:58 28.71496 89.14534 32289 ft 437 kts
2026-04-22 22:58 28.74497 89.15123 32537 ft 437 kts
2026-04-22 22:58 28.77486 89.15710 32768 ft 437 kts
2026-04-22 22:59 28.80482 89.16298 33012 ft 437 kts
2026-04-22 22:59 28.83483 89.16887 33254 ft 437 kts
2026-04-22 22:59 28.86481 89.17479 33489 ft 437 kts
2026-04-22 22:59 28.89480 89.18072 33726 ft 438 kts
2026-04-22 23:00 28.92481 89.18664 33946 ft 438 kts
2026-04-22 23:00 28.95484 89.19250 34207 ft 438 kts
2026-04-22 23:00 28.98476 89.19834 34524 ft 433 kts
2026-04-22 23:00 29.01437 89.20418 34805 ft 431 kts
2026-04-22 23:01 29.04389 89.21005 35014 ft 431 kts
2026-04-22 23:01 29.07344 89.21593 35151 ft 432 kts
2026-04-22 23:01 29.13295 89.22770 35190 ft 434 kts
2026-04-22 23:02 29.19260 89.23942 35195 ft 437 kts
2026-04-22 23:02 29.25272 89.25138 35207 ft 439 kts
2026-04-22 23:03 29.28218 89.25982 35197 ft 437 kts 19°
2026-04-22 23:03 29.30885 89.27658 35201 ft 441 kts 34°
2026-04-22 23:03 29.33073 89.30137 35200 ft 448 kts 51°
2026-04-22 23:03 29.34569 89.33289 35205 ft 456 kts 68°
2026-04-22 23:04 29.35202 89.36871 35199 ft 465 kts 85°
2026-04-22 23:04 29.35153 89.40595 35214 ft 468 kts 88°
2026-04-22 23:04 29.34929 89.48062 35212 ft 469 kts 89°
2026-04-22 23:05 29.34695 89.55546 35220 ft 469 kts 89°
2026-04-22 23:05 29.34472 89.63011 35217 ft 469 kts 88°
2026-04-22 23:06 29.34250 89.70485 35226 ft 469 kts 89°
2026-04-22 23:06 29.34021 89.77905 35227 ft 469 kts 89°
2026-04-22 23:07 29.33785 89.85372 35229 ft 469 kts 89°
2026-04-22 23:07 29.33550 89.92845 35224 ft 469 kts 89°
2026-04-22 23:08 29.33307 90.00306 35255 ft 469 kts 89°
2026-04-22 23:08 29.33056 90.07796 35234 ft 470 kts 89°
2026-04-22 23:09 29.32808 90.15291 35224 ft 471 kts 89°
2026-04-22 23:09 29.32555 90.22799 35227 ft 472 kts 89°
2026-04-22 23:10 29.32286 90.30318 35232 ft 472 kts 89°
2026-04-22 23:10 29.32019 90.37832 35221 ft 472 kts 90°
2026-04-22 23:11 29.31754 90.45352 34883 ft 472 kts 89°
2026-04-22 23:11 29.31619 90.49133 33766 ft 478 kts 88°
2026-04-22 23:11 29.31481 90.52944 32813 ft 479 kts 88°
2026-04-22 23:12 29.31338 90.56764 31817 ft 481 kts 88°
2026-04-22 23:12 29.31193 90.60605 30803 ft 484 kts 88°
2026-04-22 23:12 29.31047 90.64469 29596 ft 488 kts 88°
2026-04-22 23:12 29.30900 90.68351 28809 ft 484 kts 88°
2026-04-22 23:13 29.30752 90.72161 28158 ft 477 kts 88°
2026-04-22 23:13 29.30607 90.75915 27453 ft 472 kts 88°
2026-04-22 23:13 29.30465 90.79674 26742 ft 467 kts 88°
2026-04-22 23:13 29.30324 90.83375 26062 ft 464 kts 88°
2026-04-22 23:14 29.30180 90.87056 25387 ft 460 kts 88°
2026-04-22 23:14 29.30036 90.90706 24718 ft 457 kts 89°
2026-04-22 23:14 29.29891 90.94332 24048 ft 454 kts 89°
2026-04-22 23:14 29.29744 90.97938 23332 ft 452 kts 89°
2026-04-22 23:15 29.29628 91.01516 22728 ft 446 kts 88°
2026-04-22 23:15 29.29623 91.05046 22180 ft 439 kts 85°
2026-04-22 23:15 29.29702 91.08445 21833 ft 429 kts 85°
2026-04-22 23:15 29.29824 91.11852 21272 ft 426 kts 84°
2026-04-22 23:16 29.29952 91.15215 20762 ft 422 kts 85°
2026-04-22 23:16 29.30064 91.18541 20540 ft 411 kts 85°
2026-04-22 23:16 29.30152 91.21765 20404 ft 399 kts 86°
2026-04-22 23:16 29.30220 91.24889 20230 ft 388 kts 86°
2026-04-22 23:17 29.30277 91.27938 20064 ft 377 kts 86°
2026-04-22 23:17 29.30328 91.30899 19901 ft 367 kts 86°
2026-04-22 23:17 29.30378 91.33781 19740 ft 357 kts 86°
2026-04-22 23:17 29.30429 91.36584 19586 ft 347 kts 86°
2026-04-22 23:18 29.30482 91.39313 19446 ft 338 kts 86°
2026-04-22 23:18 29.30538 91.41959 19340 ft 327 kts 86°
2026-04-22 23:18 29.30735 91.44492 19233 ft 311 kts 70°
2026-04-22 23:18 29.31782 91.46537 19128 ft 293 kts 39°
2026-04-22 23:19 29.33518 91.47630 19036 ft 284 kts
2026-04-22 23:19 29.35402 91.47591 19069 ft 261 kts 343°
2026-04-22 23:19 29.36941 91.46657 18884 ft 246 kts 316°
2026-04-22 23:19 29.37898 91.45120 18772 ft 231 kts 292°
2026-04-22 23:20 29.38213 91.43375 18697 ft 220 kts 270°
2026-04-22 23:20 29.37929 91.41711 18625 ft 207 kts 248°
2026-04-22 23:20 29.37190 91.40335 18555 ft 201 kts 237°
2026-04-22 23:20 29.36372 91.39065 18517 ft 193 kts 236°
2026-04-22 23:21 29.35589 91.37849 18428 ft 190 kts 236°
2026-04-22 23:21 29.34794 91.36612 18364 ft 190 kts 236°
2026-04-22 23:21 29.34012 91.35396 18284 ft 189 kts 236°
2026-04-22 23:21 29.33222 91.34166 18231 ft 201 kts 237°
2026-04-22 23:22 29.32341 91.32792 18158 ft 222 kts 236°
2026-04-22 23:22 29.31425 91.31365 18078 ft 222 kts 236°
2026-04-22 23:22 29.30666 91.29916 17994 ft 198 kts 251°
2026-04-22 23:22 29.30372 91.28407 17566 ft 196 kts 266°
2026-04-22 23:23 29.30290 91.26868 17137 ft 195 kts 269°
2026-04-22 23:23 29.30258 91.25339 16835 ft 189 kts 270°
2026-04-22 23:23 29.30238 91.23865 16581 ft 182 kts 270°
2026-04-22 23:23 29.30220 91.22421 16344 ft 181 kts 270°
2026-04-22 23:24 29.30202 91.20987 16117 ft 180 kts 270°
2026-04-22 23:24 29.30185 91.19555 15886 ft 179 kts 270°
2026-04-22 23:24 29.30167 91.18132 15652 ft 179 kts 270°
2026-04-22 23:24 29.30150 91.16710 15429 ft 178 kts 269°
2026-04-22 23:25 29.30132 91.15292 15214 ft 178 kts 269°
2026-04-22 23:25 29.30114 91.13875 14985 ft 178 kts 269°
2026-04-22 23:25 29.30096 91.12455 14772 ft 179 kts 269°
2026-04-22 23:25 29.30077 91.11033 14556 ft 178 kts 269°
2026-04-22 23:26 29.30059 91.09616 14337 ft 178 kts 269°
2026-04-22 23:26 29.30040 91.08197 14123 ft 178 kts 269°
2026-04-22 23:26 29.30022 91.06785 13908 ft 177 kts 269°
2026-04-22 23:26 29.30003 91.05376 13696 ft 177 kts 269°
2026-04-22 23:27 29.29984 91.03972 13495 ft 176 kts 269°
2026-04-22 23:27 29.29965 91.02571 13301 ft 176 kts 269°
2026-04-22 23:27 29.29946 91.01169 13078 ft 175 kts 268°
2026-04-22 23:27 29.29927 90.99779 12837 ft 174 kts 269°
2026-04-22 23:28 29.29907 90.98391 12547 ft 174 kts 268°
2026-04-22 23:28 29.29892 90.97012 12212 ft 173 kts 269°
2026-04-22 23:28 29.29889 90.95640 11977 ft 172 kts 269°
2026-04-22 23:28 29.29860 90.94272 11768 ft 171 kts 268°
2026-04-22 23:29 29.29828 90.92912 11638 ft 168 kts 270°
2026-04-22 23:29 29.29812 90.91581 11614 ft 160 kts 268°
2026-04-22 23:29 29.29794 90.90549 11599 ft 88 kts 269°
2026-04-22 23:29 29.29789 90.90155 11614 ft 29 kts 269°
2026-04-22 23:30 29.29761 90.90007 11616 ft 7 kts 199°
2026-04-22 23:30 29.29711 90.90010 11605 ft 8 kts 179°
2026-04-22 23:30 29.29691 90.90010 11601 ft 0 kts 180°
2026-04-22 23:32 29.29686 90.90010 11604 ft 3 kts 180°
2026-04-22 23:33 29.29647 90.90009 11606 ft 8 kts 181°
2026-04-22 23:33 29.29575 90.90012 11614 ft 11 kts 178°
2026-04-22 23:33 29.29499 90.90000 11604 ft 9 kts 191°
2026-04-22 23:33 29.29450 90.89997 11612 ft 4 kts 180°
2026-04-22 23:34 29.29442 90.89997 11604 ft 0 kts 180°
2026-04-22 23:34 29.29437 90.89997 11605 ft 1 kts 180°
2026-04-22 23:34 29.29434 90.89997 11606 ft 0 kts 180°